,,,PA_Meas_PMT16A,,PR_Meas_QMR101_102,,RH_Meas_QMH101,,SR_Meas_QMS101,,TA_Meas_QMH101,,GenWind,,GenWind,
date,time,status,PA,status,PR,status,RH,status,SR,status,TA,status,DirAvg,status,SpdAvg,
2012-08-19, 00:00:05,VALID,1002.15,VALID,0,VALID,94.8438,VALID,0,VALID,22.3161,VALID,104,VALID,0.694922,
2012-08-19, 00:01:05,VALID,1002.15,VALID,0,VALID,94.7141,VALID,0,VALID,22.2592,VALID,43,VALID,1.29961,
2012-08-19, 00:02:05,VALID,1002.16,VALID,0,VALID,94.7751,VALID,0,VALID,22.2397,VALID,42,VALID,1.56406,
2012-08-19, 00:03:05,VALID,1002.17,VALID,0,VALID,94.943,VALID,0,VALID,22.2576,VALID,31,VALID,1.24648,
2012-08-19, 00:04:05,VALID,1002.21,VALID,0,VALID,94.9506,VALID,0,VALID,22.2186,VALID,41,VALID,1.70547,
2012-08-19, 00:05:05,VALID,1002.2,VALID,0,VALID,95.0193,VALID,0,VALID,22.2397,VALID,48,VALID,1.44375,
2012-08-19, 00:06:05,VALID,1002.2,VALID,0,VALID,95.0803,VALID,0,VALID,22.2202,VALID,41,VALID,1.58789,
2012-08-19, 00:07:05,VALID,1002.2,VALID,0,VALID,95.1414,VALID,0,VALID,22.199,VALID,41,VALID,1.28047,
2012-08-19, 00:08:05,VALID,1002.2,VALID,0,VALID,95.21,VALID,0,VALID,22.2202,VALID,36,VALID,1.63516,
2012-08-19, 00:09:05,VALID,1002.16,VALID,0,VALID,95.2634,VALID,0,VALID,22.2219,VALID,32,VALID,1.52031,
2012-08-19, 00:10:05,VALID,1002.14,VALID,0,VALID,95.3016,VALID,0,VALID,22.2007,VALID,38,VALID,1.425,
2012-08-19, 00:11:05,VALID,1002.12,VALID,0,VALID,95.3016,VALID,0,VALID,22.1812,VALID,42,VALID,1.38828,
2012-08-19, 00:12:05,VALID,1002.13,VALID,0,VALID,95.3321,VALID,0,VALID,22.1795,VALID,43,VALID,1.17773,
2012-08-19, 00:13:05,VALID,1002.06,VALID,0,VALID,95.3092,VALID,0,VALID,22.2007,VALID,44,VALID,1.00156,
2012-08-19, 00:14:05,VALID,1002.05,VALID,0,VALID,95.3092,VALID,0,VALID,22.1812,VALID,44,VALID,1.25625,
2012-08-19, 00:15:05,VALID,1002.03,VALID,0,VALID,95.2787,VALID,0,VALID,22.199,VALID,44,VALID,1.53672,
2012-08-19, 00:16:05,VALID,1002,VALID,0,VALID,95.2863,VALID,0,VALID,22.2397,VALID,49,VALID,1.44922,
2012-08-19, 00:17:05,VALID,1002,VALID,0,VALID,95.2863,VALID,0,VALID,22.2397,VALID,55,VALID,1.29102,
2012-08-19, 00:18:05,VALID,1001.99,VALID,0,VALID,95.2634,VALID,0,VALID,22.2186,VALID,57,VALID,1.2793,
2012-08-19, 00:19:05,VALID,1001.92,VALID,0,VALID,95.2482,VALID,0,VALID,22.2202,VALID,57,VALID,1.1543,
2012-08-19, 00:20:05,VALID,1001.91,VALID,0,VALID,95.21,VALID,0,VALID,22.2202,VALID,57,VALID,1.06094,
2012-08-19, 00:21:05,VALID,1001.93,VALID,0,VALID,95.1795,VALID,0,VALID,22.2186,VALID,57,VALID,0.660547,
2012-08-19, 00:22:05,VALID,1001.9,VALID,0,VALID,95.1871,VALID,0,VALID,22.1974,VALID,57,VALID,1.06445,
2012-08-19, 00:23:05,VALID,1001.89,VALID,0,VALID,95.21,VALID,0.104696,VALID,22.2186,VALID,57,VALID,0.654297,
2012-08-19, 00:24:05,VALID,1001.88,VALID,0,VALID,95.2177,VALID,0,VALID,22.2381,VALID,57,VALID,0.470703,
2012-08-19, 00:25:05,VALID,1001.89,VALID,0,VALID,95.2024,VALID,0,VALID,22.2169,VALID,57,VALID,0.112109,
2012-08-19, 00:26:05,VALID,1001.89,VALID,0,VALID,95.2177,VALID,0,VALID,22.2169,VALID,57,VALID,0,
2012-08-19, 00:27:05,VALID,1001.88,VALID,0,VALID,95.2329,VALID,0,VALID,22.2381,VALID,57,VALID,0,
2012-08-19, 00:28:05,VALID,1001.86,VALID,0,VALID,95.21,VALID,0,VALID,22.2169,VALID,57,VALID,0,
2012-08-19, 00:29:05,VALID,1001.85,VALID,0,VALID,95.2177,VALID,0,VALID,22.2381,VALID,57,VALID,0,
2012-08-19, 00:30:05,VALID,1001.83,VALID,0,VALID,95.2405,VALID,0,VALID,22.2381,VALID,57,VALID,0,
2012-08-19, 00:31:05,VALID,1001.81,VALID,0,VALID,95.2253,VALID,0,VALID,22.2381,VALID,57,VALID,0,
2012-08-19, 00:32:05,VALID,1001.8,VALID,0,VALID,95.2329,VALID,0,VALID,22.2381,VALID,57,VALID,0,
2012-08-19, 00:33:05,VALID,1001.8,VALID,0,VALID,95.2024,VALID,0,VALID,22.1779,VALID,57,VALID,0,
2012-08-19, 00:34:05,VALID,1001.74,VALID,0,VALID,95.2253,VALID,0,VALID,22.199,VALID,57,VALID,0,
2012-08-19, 00:35:05,VALID,1001.74,VALID,0,VALID,95.2329,VALID,0,VALID,22.199,VALID,57,VALID,0,
2012-08-19, 00:36:05,VALID,1001.7,VALID,0,VALID,95.2787,VALID,0,VALID,22.199,VALID,57,VALID,0,
2012-08-19, 00:37:05,VALID,1001.66,VALID,0,VALID,95.3168,VALID,0,VALID,22.2186,VALID,57,VALID,0.00703125,
2012-08-19, 00:38:05,VALID,1001.65,VALID,0,VALID,95.3397,VALID,0,VALID,22.1974,VALID,57,VALID,0.686328,
2012-08-19, 00:39:05,VALID,1001.63,VALID,0,VALID,95.3779,VALID,0,VALID,22.2381,VALID,57,VALID,0.78125,
2012-08-19, 00:40:05,VALID,1001.6,VALID,0,VALID,95.3931,VALID,0,VALID,22.2576,VALID,57,VALID,0.662109,
2012-08-19, 00:41:05,VALID,1001.59,VALID,0,VALID,95.4084,VALID,0,VALID,22.2771,VALID,57,VALID,0.508594,
2012-08-19, 00:42:05,VALID,1001.6,VALID,0,VALID,95.4389,VALID,0,VALID,22.2771,VALID,57,VALID,0.478516,
2012-08-19, 00:43:05,VALID,1001.58,VALID,0,VALID,95.416,VALID,0,VALID,22.2966,VALID,57,VALID,0.451172,
2012-08-19, 00:44:05,VALID,1001.55,VALID,0,VALID,95.4465,VALID,0,VALID,22.2949,VALID,57,VALID,0.6125,
2012-08-19, 00:45:05,VALID,1001.56,VALID,0,VALID,95.4237,VALID,0,VALID,22.3356,VALID,57,VALID,0.497656,
2012-08-19, 00:46:05,VALID,1001.52,VALID,0,VALID,95.4237,VALID,0,VALID,22.3339,VALID,57,VALID,0.539453,
2012-08-19, 00:47:05,VALID,1001.5,VALID,0,VALID,95.416,VALID,0,VALID,22.3941,VALID,57,VALID,0.362109,
2012-08-19, 00:48:05,VALID,1001.49,VALID,0,VALID,95.4008,VALID,0,VALID,22.4136,VALID,57,VALID,0.345313,
2012-08-19, 00:49:05,VALID,1001.46,VALID,0,VALID,95.3779,VALID,0,VALID,22.4331,VALID,57,VALID,0.309766,
2012-08-19, 00:50:05,VALID,1001.45,VALID,0,VALID,95.3474,VALID,0,VALID,22.4509,VALID,57,VALID,0.325391,
2012-08-19, 00:51:05,VALID,1001.45,VALID,0,VALID,95.3245,VALID,0,VALID,22.4704,VALID,57,VALID,0.590625,
2012-08-19, 00:52:05,VALID,1001.47,VALID,0,VALID,95.3016,VALID,0,VALID,22.5111,VALID,57,VALID,0.757813,
2012-08-19, 00:53:05,VALID,1001.43,VALID,0,VALID,95.2634,VALID,0,VALID,22.5094,VALID,57,VALID,0.725781,
2012-08-19, 00:54:05,VALID,1001.44,VALID,0,VALID,95.1948,VALID,0,VALID,22.5501,VALID,57,VALID,0.412109,
2012-08-19, 00:55:05,VALID,1001.45,VALID,0,VALID,95.1185,VALID,0,VALID,22.5501,VALID,57,VALID,0.255859,
2012-08-19, 00:56:05,VALID,1001.44,VALID,0,VALID,95.0956,VALID,0,VALID,22.5501,VALID,57,VALID,0.160547,
2012-08-19, 00:57:05,VALID,1001.43,VALID,0,VALID,95.0574,VALID,0,VALID,22.5484,VALID,57,VALID,0.201562,
2012-08-19, 00:58:05,VALID,1001.42,VALID,0,VALID,95.0193,VALID,0.104696,VALID,22.5696,VALID,57,VALID,0.323047,
2012-08-19, 00:59:05,VALID,1001.43,VALID,0,VALID,94.9964,VALID,0,VALID,22.5696,VALID,57,VALID,0.444531,
2012-08-19, 01:00:05,VALID,1001.44,VALID,0,VALID,94.8896,VALID,0,VALID,22.5484,VALID,57,VALID,0.6375,
2012-08-19, 01:01:05,VALID,1001.46,VALID,0,VALID,94.9048,VALID,0,VALID,22.5874,VALID,41,VALID,0.746094,
2012-08-19, 01:02:05,VALID,1001.48,VALID,0,VALID,94.8438,VALID,0,VALID,22.6282,VALID,319,VALID,0.796484,
2012-08-19, 01:03:05,VALID,1001.46,VALID,0,VALID,94.8438,VALID,0,VALID,22.6264,VALID,310,VALID,0.907031,
2012-08-19, 01:04:05,VALID,1001.48,VALID,0,VALID,94.8438,VALID,0,VALID,22.6477,VALID,299,VALID,0.785937,
2012-08-19, 01:05:05,VALID,1001.46,VALID,0,VALID,94.8514,VALID,0,VALID,22.6264,VALID,299,VALID,0.891797,
2012-08-19, 01:06:05,VALID,1001.44,VALID,0,VALID,94.8514,VALID,0,VALID,22.6494,VALID,299,VALID,0.760156,
2012-08-19, 01:07:05,VALID,1001.46,VALID,0,VALID,94.9125,VALID,0,VALID,22.6689,VALID,299,VALID,0.665234,
2012-08-19, 01:08:05,VALID,1001.48,VALID,0,VALID,94.9354,VALID,0,VALID,22.6689,VALID,299,VALID,0.890234,
2012-08-19, 01:09:05,VALID,1001.46,VALID,0,VALID,94.9048,VALID,0,VALID,22.6299,VALID,299,VALID,0.923437,
2012-08-19, 01:10:05,VALID,1001.45,VALID,0,VALID,94.8285,VALID,0,VALID,22.6104,VALID,299,VALID,0.783984,
2012-08-19, 01:11:05,VALID,1001.42,VALID,0,VALID,94.7599,VALID,0,VALID,22.5696,VALID,314,VALID,0.927734,
2012-08-19, 01:12:05,VALID,1001.42,VALID,0,VALID,94.798,VALID,0,VALID,22.5909,VALID,322,VALID,0.830078,
2012-08-19, 01:13:05,VALID,1001.44,VALID,0,VALID,94.7751,VALID,0,VALID,22.5696,VALID,322,VALID,0.646484,
2012-08-19, 01:14:05,VALID,1001.42,VALID,0,VALID,94.8438,VALID,0,VALID,22.6104,VALID,322,VALID,0.527344,
2012-08-19, 01:15:05,VALID,1001.45,VALID,0,VALID,94.882,VALID,0,VALID,22.6087,VALID,322,VALID,0.523047,
2012-08-19, 01:16:05,VALID,1001.46,VALID,0,VALID,94.8896,VALID,0,VALID,22.6104,VALID,322,VALID,0.330078,
2012-08-19, 01:17:05,VALID,1001.49,VALID,0,VALID,94.8438,VALID,0,VALID,22.5501,VALID,322,VALID,0.638281,
2012-08-19, 01:18:05,VALID,1001.48,VALID,0,VALID,94.7828,VALID,0,VALID,22.5306,VALID,322,VALID,0.653906,
2012-08-19, 01:19:05,VALID,1001.46,VALID,0,VALID,94.7294,VALID,0,VALID,22.5323,VALID,322,VALID,0.648438,
2012-08-19, 01:20:05,VALID,1001.47,VALID,0,VALID,94.6836,VALID,0,VALID,22.5323,VALID,354,VALID,0.866016,
2012-08-19, 01:21:05,VALID,1001.44,VALID,0,VALID,94.6149,VALID,0,VALID,22.4916,VALID,355,VALID,1.00352,
2012-08-19, 01:22:05,VALID,1001.43,VALID,0,VALID,94.5539,VALID,0,VALID,22.4526,VALID,1,VALID,0.963281,
2012-08-19, 01:23:05,VALID,1001.39,VALID,0,VALID,94.5234,VALID,0.104696,VALID,22.4509,VALID,12,VALID,1.22734,
2012-08-19, 01:24:05,VALID,1001.39,VALID,0,VALID,94.4928,VALID,0,VALID,22.4331,VALID,15,VALID,1.20977,
2012-08-19, 01:25:05,VALID,1001.38,VALID,0,VALID,94.4776,VALID,0,VALID,22.4331,VALID,20,VALID,1.19336,
2012-08-19, 01:26:05,VALID,1001.37,VALID,0,VALID,94.4471,VALID,0,VALID,22.3924,VALID,25,VALID,1.28086,
2012-08-19, 01:27:05,VALID,1001.36,VALID,0,VALID,94.4165,VALID,0,VALID,22.3941,VALID,39,VALID,1.11016,
2012-08-19, 01:28:05,VALID,1001.34,VALID,0,VALID,94.4013,VALID,0,VALID,22.3941,VALID,39,VALID,1.12539,
2012-08-19, 01:29:05,VALID,1001.36,VALID,0,VALID,94.3631,VALID,0,VALID,22.3941,VALID,39,VALID,0.945313,
2012-08-19, 01:30:05,VALID,1001.37,VALID,0,VALID,94.3021,VALID,0,VALID,22.3941,VALID,39,VALID,0.713672,
2012-08-19, 01:31:05,VALID,1001.4,VALID,0,VALID,94.2411,VALID,0,VALID,22.3746,VALID,39,VALID,0.441797,
2012-08-19, 01:32:05,VALID,1001.42,VALID,0,VALID,94.2563,VALID,0,VALID,22.4136,VALID,39,VALID,0.370313,
2012-08-19, 01:33:05,VALID,1001.42,VALID,0,VALID,94.264,VALID,0,VALID,22.4136,VALID,39,VALID,0.500391,
2012-08-19, 01:34:05,VALID,1001.46,VALID,0,VALID,94.2716,VALID,0,VALID,22.4331,VALID,39,VALID,0.399609,
2012-08-19, 01:35:05,VALID,1001.48,VALID,0,VALID,94.2258,VALID,0,VALID,22.4331,VALID,39,VALID,0.509375,
2012-08-19, 01:36:05,VALID,1001.45,VALID,0,VALID,94.1648,VALID,0,VALID,22.4314,VALID,39,VALID,0.364062,
2012-08-19, 01:37:05,VALID,1001.47,VALID,0,VALID,94.1037,VALID,0,VALID,22.4526,VALID,39,VALID,0.2625,
2012-08-19, 01:38:05,VALID,1001.46,VALID,0,VALID,93.9664,VALID,0,VALID,22.4136,VALID,39,VALID,0,
2012-08-19, 01:39:05,VALID,1001.46,VALID,0,VALID,93.9435,VALID,0,VALID,22.4331,VALID,39,VALID,0,
2012-08-19, 01:40:05,VALID,1001.46,VALID,0,VALID,93.9283,VALID,0,VALID,22.4119,VALID,39,VALID,0.0246094,
2012-08-19, 01:41:05,VALID,1001.47,VALID,0,VALID,93.8596,VALID,0,VALID,22.4136,VALID,39,VALID,0.358594,
2012-08-19, 01:42:05,VALID,1001.47,VALID,0,VALID,93.8291,VALID,0,VALID,22.3941,VALID,39,VALID,0.357422,
2012-08-19, 01:43:05,VALID,1001.46,VALID,0,VALID,93.7528,VALID,0,VALID,22.3941,VALID,39,VALID,0.404297,
2012-08-19, 01:44:05,VALID,1001.45,VALID,0,VALID,93.7833,VALID,0,VALID,22.3941,VALID,39,VALID,0.440625,
2012-08-19, 01:45:05,VALID,1001.42,VALID,0,VALID,93.8291,VALID,0,VALID,22.3746,VALID,39,VALID,0.536328,
2012-08-19, 01:46:04,VALID,1001.42,VALID,0,VALID,93.8214,VALID,0,VALID,22.3746,VALID,39,VALID,0.432422,
2012-08-19, 01:47:04,VALID,1001.44,VALID,0,VALID,93.8977,VALID,0,VALID,22.3534,VALID,39,VALID,0.426172,
2012-08-19, 01:48:04,VALID,1001.42,VALID,0,VALID,93.974,VALID,0,VALID,22.3339,VALID,39,VALID,0.326172,
2012-08-19, 01:49:04,VALID,1001.43,VALID,0,VALID,94.0427,VALID,0,VALID,22.3746,VALID,39,VALID,0.215234,
2012-08-19, 01:50:04,VALID,1001.42,VALID,0,VALID,94.0656,VALID,0,VALID,22.3339,VALID,39,VALID,0,
2012-08-19, 01:51:04,VALID,1001.4,VALID,0,VALID,94.0503,VALID,0,VALID,22.3568,VALID,39,VALID,0.361328,
2012-08-19, 01:52:04,VALID,1001.4,VALID,0,VALID,94.0885,VALID,0,VALID,22.3373,VALID,39,VALID,0.409766,
2012-08-19, 01:53:04,VALID,1001.37,VALID,0,VALID,94.1037,VALID,0,VALID,22.3551,VALID,39,VALID,0.596094,
2012-08-19, 01:54:04,VALID,1001.36,VALID,0,VALID,94.0656,VALID,0,VALID,22.3958,VALID,131,VALID,0.755078,
2012-08-19, 01:55:04,VALID,1001.32,VALID,0,VALID,93.913,VALID,0,VALID,22.4153,VALID,131,VALID,0.802734,
2012-08-19, 01:56:04,VALID,1001.31,VALID,0,VALID,93.7375,VALID,0,VALID,22.4348,VALID,131,VALID,0.789844,
2012-08-19, 01:57:04,VALID,1001.3,VALID,0,VALID,93.5926,VALID,0,VALID,22.4526,VALID,131,VALID,1.02578,
2012-08-19, 01:58:04,VALID,1001.29,VALID,0,VALID,93.3484,VALID,0,VALID,22.4738,VALID,131,VALID,0.998828,
2012-08-19, 01:59:04,VALID,1001.3,VALID,0,VALID,93.1348,VALID,0,VALID,22.4543,VALID,130,VALID,1.00469,
2012-08-19, 02:00:04,VALID,1001.28,VALID,0,VALID,93.1424,VALID,0,VALID,22.4348,VALID,123,VALID,0.999609,
2012-08-19, 02:01:04,VALID,1001.28,VALID,0,VALID,93.1424,VALID,0,VALID,22.4153,VALID,121,VALID,0.820703,
2012-08-19, 02:02:04,VALID,1001.28,VALID,0,VALID,93.2416,VALID,0,VALID,22.3746,VALID,121,VALID,0.791406,
2012-08-19, 02:03:04,VALID,1001.25,VALID,0,VALID,93.3789,VALID,0,VALID,22.3551,VALID,121,VALID,0.754297,
2012-08-19, 02:04:04,VALID,1001.25,VALID,0,VALID,93.5086,VALID,0,VALID,22.3568,VALID,121,VALID,0.953906,
2012-08-19, 02:05:04,VALID,1001.24,VALID,0,VALID,93.6688,VALID,0,VALID,22.3568,VALID,121,VALID,1.57656,
2012-08-19, 02:06:04,VALID,1001.24,VALID,0,VALID,93.8825,VALID,0,VALID,22.3373,VALID,115,VALID,1.72109,
2012-08-19, 02:07:04,VALID,1001.25,VALID,0,VALID,94.0198,VALID,0,VALID,22.3161,VALID,108,VALID,1.56914,
2012-08-19, 02:08:04,VALID,1001.25,VALID,0,VALID,94.0274,VALID,0,VALID,22.3178,VALID,107,VALID,1.45273,
2012-08-19, 02:09:04,VALID,1001.26,VALID,0,VALID,94.0198,VALID,0,VALID,22.3178,VALID,108,VALID,1.32773,
2012-08-19, 02:10:04,VALID,1001.25,VALID,0,VALID,93.9664,VALID,0,VALID,22.2771,VALID,119,VALID,1.16602,
2012-08-19, 02:11:04,VALID,1001.23,VALID,0,VALID,93.8443,VALID,0,VALID,22.3178,VALID,141,VALID,1.20234,
2012-08-19, 02:12:04,VALID,1001.2,VALID,0,VALID,93.7985,VALID,0,VALID,22.3373,VALID,149,VALID,1.04883,
2012-08-19, 02:13:04,VALID,1001.15,VALID,0,VALID,93.8825,VALID,0,VALID,22.3568,VALID,160,VALID,1.26992,
2012-08-19, 02:14:04,VALID,1001.12,VALID,0,VALID,94.0351,VALID,0,VALID,22.3958,VALID,162,VALID,1.46328,
2012-08-19, 02:15:04,VALID,1001.12,VALID,0,VALID,94.0885,VALID,0,VALID,22.4348,VALID,154,VALID,1.39141,
2012-08-19, 02:16:04,VALID,1001.1,VALID,0,VALID,93.9969,VALID,0,VALID,22.4348,VALID,146,VALID,1.10312,
2012-08-19, 02:17:04,VALID,1001.1,VALID,0,VALID,93.9664,VALID,0,VALID,22.4543,VALID,143,VALID,0.866797,
2012-08-19, 02:18:04,VALID,1001.09,VALID,0,VALID,93.9817,VALID,0,VALID,22.4331,VALID,141,VALID,1.28359,
2012-08-19, 02:19:04,VALID,1001.06,VALID,0,VALID,93.9969,VALID,0,VALID,22.4543,VALID,149,VALID,1.17227,
2012-08-19, 02:20:04,VALID,1001.08,VALID,0,VALID,94.0961,VALID,0,VALID,22.4933,VALID,130,VALID,1.31914,
2012-08-19, 02:21:04,VALID,1001.06,VALID,0,VALID,94.0961,VALID,0,VALID,22.4738,VALID,119,VALID,1.40391,
2012-08-19, 02:22:04,VALID,1001.07,VALID,0,VALID,94.1571,VALID,0,VALID,22.4933,VALID,119,VALID,1.13086,
2012-08-19, 02:23:04,VALID,1001.07,VALID,0,VALID,94.1953,VALID,0,VALID,22.4738,VALID,119,VALID,0.938281,
2012-08-19, 02:24:04,VALID,1001.09,VALID,0,VALID,94.1953,VALID,0,VALID,22.4738,VALID,119,VALID,0.885938,
2012-08-19, 02:25:04,VALID,1001.12,VALID,0,VALID,94.1343,VALID,0,VALID,22.4738,VALID,119,VALID,0.556641,
2012-08-19, 02:26:04,VALID,1001.09,VALID,0,VALID,94.119,VALID,0,VALID,22.4543,VALID,119,VALID,0.373047,
2012-08-19, 02:27:04,VALID,1001.08,VALID,0,VALID,94.0961,VALID,0,VALID,22.4331,VALID,119,VALID,0.28125,
2012-08-19, 02:28:04,VALID,1001.05,VALID,0,VALID,94.0961,VALID,0,VALID,22.4348,VALID,119,VALID,0.218359,
2012-08-19, 02:29:04,VALID,1001.03,VALID,0,VALID,94.058,VALID,0,VALID,22.4136,VALID,119,VALID,0.541016,
2012-08-19, 02:30:04,VALID,1001.02,VALID,0,VALID,93.9664,VALID,0,VALID,22.3746,VALID,71,VALID,0.820703,
2012-08-19, 02:31:04,VALID,1001,VALID,0,VALID,93.7909,VALID,0,VALID,22.3763,VALID,62,VALID,0.475781,
2012-08-19, 02:32:04,VALID,1001,VALID,0,VALID,93.6994,VALID,0,VALID,22.3161,VALID,62,VALID,0.473437,
2012-08-19, 02:33:04,VALID,1000.97,VALID,0,VALID,93.7223,VALID,0,VALID,22.3178,VALID,62,VALID,0.499219,
2012-08-19, 02:34:04,VALID,1000.94,VALID,0,VALID,93.8443,VALID,0,VALID,22.2576,VALID,62,VALID,0.414844,
2012-08-19, 02:35:04,VALID,1000.92,VALID,0,VALID,93.9283,VALID,0,VALID,22.2592,VALID,62,VALID,0.0398437,
2012-08-19, 02:36:04,VALID,1000.91,VALID,0,VALID,94.0045,VALID,0,VALID,22.2169,VALID,62,VALID,0,
2012-08-19, 02:37:04,VALID,1000.9,VALID,0,VALID,94.0274,VALID,0,VALID,22.199,VALID,62,VALID,0.599219,
2012-08-19, 02:38:04,VALID,1000.86,VALID,0,VALID,93.9664,VALID,0,VALID,22.1795,VALID,24,VALID,1.32031,
2012-08-19, 02:39:04,VALID,1000.86,VALID,0,VALID,93.9511,VALID,0,VALID,22.1584,VALID,19,VALID,1.58984,
2012-08-19, 02:40:04,VALID,1000.85,VALID,0,VALID,93.9283,VALID,0,VALID,22.1584,VALID,19,VALID,1.44609,
2012-08-19, 02:41:04,VALID,1000.83,VALID,0,VALID,93.9283,VALID,0.104696,VALID,22.1584,VALID,19,VALID,1.48672,
2012-08-19, 02:42:04,VALID,1000.82,VALID,0,VALID,94.0274,VALID,0,VALID,22.1584,VALID,19,VALID,1.4625,
2012-08-19, 02:43:04,VALID,1000.79,VALID,0,VALID,94.0885,VALID,0.104696,VALID,22.1405,VALID,19,VALID,1.39727,
2012-08-19, 02:44:04,VALID,1000.78,VALID,0,VALID,94.1266,VALID,0,VALID,22.1015,VALID,19,VALID,1.36445,
2012-08-19, 02:45:04,VALID,1000.77,VALID,0,VALID,94.2105,VALID,0,VALID,22.0608,VALID,19,VALID,1.4082,
2012-08-19, 02:46:04,VALID,1000.77,VALID,0,VALID,94.3174,VALID,0.104696,VALID,22.043,VALID,24,VALID,1.41289,
2012-08-19, 02:47:04,VALID,1000.78,VALID,0,VALID,94.4471,VALID,0.104696,VALID,22.0413,VALID,29,VALID,1.16406,
2012-08-19, 02:48:04,VALID,1000.8,VALID,0,VALID,94.5157,VALID,0,VALID,22.0413,VALID,29,VALID,1.11602,
2012-08-19, 02:49:04,VALID,1000.73,VALID,0,VALID,94.592,VALID,0,VALID,22.0625,VALID,30,VALID,1.44375,
2012-08-19, 02:50:04,VALID,1000.77,VALID,0,VALID,94.592,VALID,0.104696,VALID,22.0803,VALID,35,VALID,1.49023,
2012-08-19, 02:51:04,VALID,1000.78,VALID,0,VALID,94.5234,VALID,0,VALID,22.1227,VALID,34,VALID,1.58867,
2012-08-19, 02:52:04,VALID,1000.78,VALID,0,VALID,94.3708,VALID,0,VALID,22.1032,VALID,34,VALID,1.42148,
2012-08-19, 02:53:04,VALID,1000.81,VALID,0,VALID,94.264,VALID,0,VALID,22.1032,VALID,33,VALID,1.06758,
2012-08-19, 02:54:04,VALID,1000.79,VALID,0,VALID,94.1495,VALID,0,VALID,22.0625,VALID,33,VALID,0.753125,
2012-08-19, 02:55:04,VALID,1000.79,VALID,0,VALID,94.1419,VALID,0,VALID,22.0642,VALID,33,VALID,0.733203,
2012-08-19, 02:56:04,VALID,1000.74,VALID,0,VALID,94.2029,VALID,0,VALID,22.0447,VALID,33,VALID,1.14141,
2012-08-19, 02:57:04,VALID,1000.72,VALID,0,VALID,94.3631,VALID,0,VALID,22.0642,VALID,33,VALID,1.17031,
2012-08-19, 02:58:04,VALID,1000.73,VALID,0,VALID,94.3784,VALID,0,VALID,22.0642,VALID,33,VALID,1.18789,
2012-08-19, 02:59:04,VALID,1000.73,VALID,0,VALID,94.3555,VALID,0,VALID,22.0642,VALID,33,VALID,0.875781,
2012-08-19, 03:00:04,VALID,1000.73,VALID,0,VALID,94.3174,VALID,0,VALID,22.0447,VALID,33,VALID,0.817578,
2012-08-19, 03:01:04,VALID,1000.71,VALID,0,VALID,94.3097,VALID,0,VALID,22.004,VALID,33,VALID,0.474609,
2012-08-19, 03:02:04,VALID,1000.72,VALID,0,VALID,94.3174,VALID,0,VALID,22.0057,VALID,33,VALID,0.261719,
2012-08-19, 03:03:04,VALID,1000.71,VALID,0,VALID,94.3784,VALID,0,VALID,21.9845,VALID,33,VALID,0.209766,
2012-08-19, 03:04:04,VALID,1000.69,VALID,0,VALID,94.4471,VALID,0,VALID,21.9845,VALID,33,VALID,0.453125,
2012-08-19, 03:05:04,VALID,1000.66,VALID,0,VALID,94.4547,VALID,0,VALID,21.965,VALID,33,VALID,0.677734,
2012-08-19, 03:06:04,VALID,1000.69,VALID,0,VALID,94.4623,VALID,0,VALID,21.965,VALID,33,VALID,0.635547,
2012-08-19, 03:07:04,VALID,1000.69,VALID,0,VALID,94.3784,VALID,0,VALID,21.9048,VALID,33,VALID,0.488672,
2012-08-19, 03:08:04,VALID,1000.72,VALID,0,VALID,94.3937,VALID,0,VALID,21.9065,VALID,33,VALID,0.34375,
2012-08-19, 03:09:04,VALID,1000.69,VALID,0,VALID,94.47,VALID,0,VALID,21.9065,VALID,33,VALID,0.584375,
2012-08-19, 03:10:04,VALID,1000.71,VALID,0,VALID,94.4013,VALID,0,VALID,21.8675,VALID,27,VALID,1.06992,
2012-08-19, 03:11:04,VALID,1000.72,VALID,0,VALID,94.4928,VALID,0,VALID,21.887,VALID,2,VALID,0.6625,
2012-08-19, 03:12:04,VALID,1000.72,VALID,0,VALID,94.5462,VALID,0,VALID,21.887,VALID,2,VALID,0.267969,
2012-08-19, 03:13:04,VALID,1000.7,VALID,0,VALID,94.5691,VALID,0.104696,VALID,21.887,VALID,2,VALID,0.325781,
2012-08-19, 03:14:04,VALID,1000.68,VALID,0,VALID,94.6378,VALID,0.104696,VALID,21.9065,VALID,2,VALID,0.177344,
2012-08-19, 03:15:04,VALID,1000.67,VALID,0,VALID,94.676,VALID,0,VALID,21.926,VALID,2,VALID,0.09375,
2012-08-19, 03:16:04,VALID,1000.67,VALID,0,VALID,94.6912,VALID,0.104696,VALID,21.926,VALID,2,VALID,0,
2012-08-19, 03:17:04,VALID,1000.68,VALID,0,VALID,94.7217,VALID,0,VALID,21.9455,VALID,2,VALID,0.488672,
2012-08-19, 03:18:04,VALID,1000.65,VALID,0,VALID,94.737,VALID,0,VALID,21.965,VALID,5,VALID,0.617188,
2012-08-19, 03:19:04,VALID,1000.64,VALID,0,VALID,94.6454,VALID,0,VALID,21.9845,VALID,16,VALID,0.697266,
2012-08-19, 03:20:04,VALID,1000.64,VALID,0,VALID,94.5615,VALID,0,VALID,22.004,VALID,16,VALID,0.775781,
2012-08-19, 03:21:04,VALID,1000.63,VALID,0,VALID,94.4165,VALID,0.104696,VALID,21.9845,VALID,16,VALID,0.808984,
2012-08-19, 03:22:04,VALID,1000.63,VALID,0,VALID,94.3403,VALID,0,VALID,21.9845,VALID,37,VALID,0.930859,
2012-08-19, 03:23:04,VALID,1000.66,VALID,0,VALID,94.2334,VALID,0,VALID,21.965,VALID,69,VALID,0.896484,
2012-08-19, 03:24:04,VALID,1000.63,VALID,0,VALID,94.1495,VALID,0.104696,VALID,21.9845,VALID,72,VALID,0.883984,
2012-08-19, 03:25:04,VALID,1000.62,VALID,0,VALID,94.0656,VALID,0,VALID,21.9455,VALID,72,VALID,0.807031,
2012-08-19, 03:26:04,VALID,1000.63,VALID,0,VALID,93.9969,VALID,0,VALID,21.926,VALID,72,VALID,0.759375,
2012-08-19, 03:27:04,VALID,1000.63,VALID,0,VALID,93.9817,VALID,0,VALID,21.9065,VALID,72,VALID,0.628516,
2012-08-19, 03:28:04,VALID,1000.57,VALID,0,VALID,94.0274,VALID,0,VALID,21.8675,VALID,72,VALID,0.225391,
2012-08-19, 03:29:04,VALID,1000.62,VALID,0,VALID,94.0885,VALID,0.104696,VALID,21.8675,VALID,72,VALID,0,
2012-08-19, 03:30:04,VALID,1000.6,VALID,0,VALID,94.1419,VALID,0,VALID,21.848,VALID,72,VALID,0,
2012-08-19, 03:31:04,VALID,1000.56,VALID,0,VALID,94.2487,VALID,0,VALID,21.848,VALID,72,VALID,0,
2012-08-19, 03:32:04,VALID,1000.57,VALID,0,VALID,94.3403,VALID,0,VALID,21.848,VALID,72,VALID,0,
2012-08-19, 03:33:04,VALID,1000.58,VALID,0,VALID,94.4013,VALID,0,VALID,21.8268,VALID,72,VALID,0,
2012-08-19, 03:34:04,VALID,1000.59,VALID,0,VALID,94.47,VALID,0,VALID,21.8496,VALID,72,VALID,0.597656,
2012-08-19, 03:35:04,VALID,1000.57,VALID,0,VALID,94.592,VALID,0,VALID,21.8675,VALID,101,VALID,0.642578,
2012-08-19, 03:36:04,VALID,1000.56,VALID,0,VALID,94.676,VALID,0,VALID,21.8887,VALID,101,VALID,0.374219,
2012-08-19, 03:37:04,VALID,1000.6,VALID,0,VALID,94.737,VALID,0,VALID,21.8887,VALID,101,VALID,0.573438,
2012-08-19, 03:38:04,VALID,1000.6,VALID,0,VALID,94.7675,VALID,0,VALID,21.8887,VALID,101,VALID,0.364844,
2012-08-19, 03:39:04,VALID,1000.64,VALID,0,VALID,94.7675,VALID,0,VALID,21.9082,VALID,101,VALID,0.3375,
2012-08-19, 03:40:04,VALID,1000.66,VALID,0,VALID,94.7828,VALID,0,VALID,21.9082,VALID,101,VALID,0.44375,
2012-08-19, 03:41:04,VALID,1000.67,VALID,0,VALID,94.7904,VALID,0,VALID,21.9082,VALID,101,VALID,0.466797,
2012-08-19, 03:42:04,VALID,1000.69,VALID,0,VALID,94.8057,VALID,0,VALID,21.887,VALID,101,VALID,0.286328,
2012-08-19, 03:43:04,VALID,1000.71,VALID,0,VALID,94.8362,VALID,0,VALID,21.9082,VALID,101,VALID,0.263281,
2012-08-19, 03:44:04,VALID,1000.72,VALID,0,VALID,94.882,VALID,0,VALID,21.9082,VALID,101,VALID,0.185547,
2012-08-19, 03:45:04,VALID,1000.71,VALID,0,VALID,94.8896,VALID,0,VALID,21.8675,VALID,101,VALID,0.404297,
2012-08-19, 03:46:04,VALID,1000.75,VALID,0,VALID,94.8896,VALID,0,VALID,21.8692,VALID,101,VALID,0.50625,
2012-08-19, 03:47:04,VALID,1000.73,VALID,0,VALID,94.9201,VALID,0,VALID,21.848,VALID,50,VALID,0.673828,